GFSSGP_250_spd_231.txt.gz
Wind_Speed
14 16 7 5 12 18 18 22 22 28 32 36 36 41 46 53 57 49 48 48 47 49 49 57 43 44 29 19 12 14 20 23 19 19 18 15 13 11 9 9 8 6 7 11 17 14 8 9 13
12 4 11 5 12 15 17 22 23 28 33 35 37 40 46 49 55 53 48 49 47 49 52 55 47 49 33 23 18 18 23 25 22 21 16 13 8 9 9 11 9 9 8 8 8 10 8 10 10
13 14 1 3 6 14 17 20 23 25 29 35 34 37 43 47 52 57 49 50 48 50 50 57 55 54 36 31 24 21 26 26 23 21 18 14 12 11 12 11 9 7 7 8 7 4 5 4 4
4 12 5 5 12 15 14 17 19 21 23 32 31 34 39 44 50 55 50 50 49 48 46 50 56 54 45 33 27 24 29 26 24 22 18 17 15 13 11 7 6 6 5 5 4 4 6 5 7
1 1 0 3 5 7 9 14 16 15 20 29 31 32 38 42 46 52 54 49 48 47 49 45 52 53 51 41 37 30 33 29 27 25 21 19 18 15 11 7 6 5 4 2 4 6 7 8 9
3 10 8 5 3 6 6 9 15 16 18 24 29 29 33 41 43 48 53 47 47 46 48 45 46 51 52 49 42 34 32 29 26 23 22 17 16 17 14 10 7 4 4 4 1 4 6 8 8
4 9 5 4 6 5 5 8 15 17 16 20 27 28 33 37 41 44 49 47 44 45 46 46 45 46 50 50 48 41 33 27 22 19 19 15 14 13 12 10 8 4 2 4 3 3 4 1 2
8 10 13 15 9 8 9 6 13 15 14 16 24 25 30 38 38 39 44 46 41 42 42 45 44 39 42 44 45 46 46 40 27 22 21 19 20 17 19 14 9 6 2 1 2 3 2 2 5
10 11 14 4 11 14 8 6 10 12 13 15 19 24 28 34 37 35 40 45 39 39 40 41 44 42 38 41 37 36 39 40 39 29 20 20 18 22 19 14 8 4 1 3 7 4 4 6 5
20 21 20 14 10 11 5 5 13 12 13 13 16 23 25 29 32 32 36 41 36 37 36 37 40 40 41 34 36 30 30 28 29 31 26 29 27 24 24 20 16 13 8 4 3 3 4 3 2
26 27 22 16 12 11 8 17 20 16 17 13 19 23 22 25 28 30 32 35 37 35 31 33 37 37 36 36 36 31 27 23 24 21 24 22 22 19 28 28 28 31 33 30 29 26 13 6 10
32 30 28 23 17 16 11 22 12 23 7 9 21 25 19 20 26 25 28 31 36 34 29 29 32 35 34 33 32 32 30 30 27 28 27 21 20 23 26 31 32 33 33 32 32 35 35 33 33
39 38 36 32 22 19 18 11 21 23 7 18 20 22 18 18 22 21 23 29 32 32 28 25 28 30 32 31 32 30 29 31 27 25 27 22 20 19 27 26 32 29 29 28 27 25 23 24 28
44 43 42 36 33 25 21 17 17 15 29 27 23 18 19 15 16 18 18 21 26 29 31 25 24 25 27 29 29 25 26 26 25 27 29 22 25 24 18 22 20 19 16 16 16 16 18 15 16
47 46 46 43 38 32 26 24 23 15 17 16 17 22 22 16 11 11 14 16 20 26 26 32 21 21 23 26 27 26 22 21 24 24 24 25 26 19 18 18 18 16 19 18 14 14 15 15 13
48 48 47 47 45 38 33 28 30 27 25 26 29 25 26 7 15 11 8 12 15 21 24 26 26 18 19 20 23 25 24 23 22 21 18 17 20 19 18 18 18 19 20 19 16 11 10 8 9
55 52 50 50 48 46 40 36 34 34 36 35 25 28 23 11 10 10 8 8 12 16 19 22 26 26 16 16 18 20 24 23 24 26 22 19 18 18 18 17 17 17 16 17 15 13 12 11 7
57 57 54 50 49 46 45 43 40 38 40 40 30 29 32 35 10 9 8 6 8 11 16 19 18 24 21 13 12 14 17 20 23 25 22 21 21 22 21 22 21 19 19 20 20 18 16 13 12
59 57 57 57 53 50 49 49 48 46 40 39 37 31 30 36 17 14 12 9 4 12 13 13 17 16 21 15 9 11 13 15 17 20 20 20 20 21 23 22 23 22 21 22 23 26 21 18 19
58 55 53 57 55 49 46 47 44 47 43 42 41 34 33 36 31 19 13 11 13 15 9 8 16 14 18 19 12 6 7 9 12 15 14 16 19 18 20 21 20 20 20 22 24 25 23 23 22
55 55 55 54 55 53 47 46 44 45 45 44 46 43 42 42 35 25 15 15 18 19 10 7 12 17 15 14 18 10 5 5 7 8 11 13 15 17 18 18 19 20 19 18 18 20 20 21 22
56 54 52 52 50 49 46 41 43 45 46 46 47 48 51 47 35 28 16 18 18 25 20 13 11 16 10 14 12 16 7 4 3 2 5 6 7 12 14 15 16 17 20 20 21 21 20 21 21
58 57 53 52 48 45 44 44 42 46 49 50 49 45 44 37 29 21 27 19 22 29 24 18 18 13 11 12 9 11 10 5 3 3 3 5 4 8 9 10 13 14 17 17 18 20 21 24 26
65 59 53 52 47 45 44 41 41 44 48 52 50 48 43 37 29 24 25 21 29 33 32 30 24 18 16 10 8 6 10 8 9 6 6 5 4 3 5 6 8 9 11 14 16 18 19 20 21
67 60 56 52 47 50 44 41 39 43 42 46 48 50 37 29 34 30 20 28 30 33 31 32 27 25 21 14 13 8 6 9 10 11 9 9 7 6 5 7 5 7 9 11 13 15 16 16 17
69 66 59 54 50 55 46 43 43 39 39 41 45 45 46 39 27 29 31 32 29 36 40 35 33 36 29 21 22 13 9 9 11 13 14 13 13 11 9 8 8 8 9 10 11 13 14 15 16
74 69 63 62 59 58 47 50 42 41 41 39 44 47 49 53 47 38 32 31 36 39 41 40 39 42 32 24 31 23 15 15 12 14 17 18 17 16 14 11 10 9 9 8 9 11 13 16 18
76 75 71 64 61 60 54 52 47 46 44 42 40 50 48 46 48 48 42 43 39 38 42 39 35 38 38 38 33 25 24 17 18 17 18 21 22 22 18 16 14 12 12 11 10 10 12 15 19
81 79 74 67 63 62 62 56 52 49 47 46 38 40 46 53 49 51 44 45 44 39 41 35 35 34 33 40 36 31 32 26 21 23 24 24 24 25 23 21 20 18 15 15 15 15 15 16 20
88 85 80 74 68 65 65 63 58 54 48 47 47 42 45 43 46 51 46 41 40 41 42 44 43 40 48 47 44 38 35 36 37 35 26 28 28 28 28 26 25 23 22 21 20 20 20 20 22

GFSSGP_250_spd_234.txt.gz
Wind_Speed
7 10 8 11 18 18 23 26 27 29 38 36 40 43 48 55 56 51 53 50 54 46 54 50 31 26 23 20 25 30 28 25 28 25 23 18 16 15 15 15 13 12 14 11 11 11 10 8 7
2 6 8 4 15 15 22 21 25 27 31 35 36 44 48 53 56 53 53 53 55 50 55 49 35 32 29 29 32 33 29 30 30 25 22 18 17 16 15 13 10 8 7 6 5 8 6 5 7
10 7 7 2 13 15 19 21 23 26 29 34 37 42 48 49 53 54 51 52 57 49 55 53 39 35 34 34 35 34 30 28 24 20 17 14 15 15 16 13 9 8 8 7 6 5 4 1 2
8 7 2 7 6 12 15 20 25 26 26 35 36 39 48 46 50 54 48 51 55 51 54 55 48 42 38 37 36 33 29 27 25 21 19 17 15 15 14 14 13 10 7 7 5 4 3 1 1
3 8 5 2 7 11 12 17 21 23 23 30 35 39 45 45 48 52 47 49 53 53 49 49 56 51 45 40 35 32 30 26 23 22 22 21 18 14 8 8 10 9 8 6 4 2 1 2 2
2 3 4 8 9 9 10 14 21 20 21 25 30 39 42 45 44 50 46 45 50 53 45 47 53 54 51 39 34 31 28 23 21 21 20 21 19 16 14 12 9 7 4 3 5 4 2 1 2
1 2 5 2 11 9 12 11 15 16 18 22 25 35 39 43 41 48 45 43 46 49 48 42 41 46 47 48 42 31 25 23 21 20 21 22 22 19 19 14 8 8 6 6 7 8 9 7 5
4 6 10 7 4 8 10 6 13 13 16 19 26 34 34 40 39 43 45 42 42 46 48 44 40 33 35 40 42 38 31 28 25 24 28 28 26 22 15 11 11 11 7 7 6 4 5 5 5
11 7 8 9 3 11 13 9 13 13 19 16 26 32 33 37 36 38 42 40 38 40 44 45 42 41 32 31 34 34 35 30 31 30 28 25 25 15 14 14 10 7 5 3 3 1 4 4 8
15 4 14 9 7 11 5 9 16 18 28 16 25 27 28 32 33 35 38 40 35 36 41 44 44 40 39 34 34 33 32 31 27 27 32 29 31 31 33 34 33 32 26 18 13 13 12 10 9
22 21 21 18 15 11 7 10 12 10 17 11 20 27 25 27 31 28 35 37 35 33 36 40 41 41 39 35 33 34 33 34 31 29 27 29 31 31 35 37 39 35 35 36 35 30 27 28 28
30 28 24 22 17 15 10 11 11 9 3 6 18 25 25 24 26 25 28 34 34 32 31 34 37 38 38 36 35 35 31 34 36 31 27 27 25 27 29 30 32 31 28 29 30 30 28 28 25
35 33 28 25 23 20 16 11 12 14 6 1 20 26 23 21 22 21 23 27 33 31 30 29 32 35 36 37 35 34 31 34 35 34 30 29 24 24 24 25 26 24 21 23 27 26 24 23 23
42 39 37 34 31 28 19 15 8 7 19 10 21 17 18 20 17 17 19 20 27 30 30 27 28 30 33 34 36 34 32 30 32 36 31 23 24 21 21 20 23 25 22 22 20 18 18 17 17
50 44 43 39 36 33 28 21 18 20 14 19 16 12 19 21 16 15 15 16 21 25 28 26 26 25 27 28 31 32 30 30 31 33 28 27 27 24 24 25 27 28 24 19 18 17 15 17 20
50 50 47 42 39 38 36 27 23 24 23 18 16 21 19 21 16 11 11 13 17 19 22 25 24 25 21 23 26 29 29 28 31 30 25 24 24 25 23 22 23 24 22 20 18 16 15 15 13
56 53 50 47 44 43 40 34 30 27 29 28 29 32 29 21 21 8 8 9 12 18 19 21 22 20 19 17 19 23 26 27 28 28 27 27 26 25 24 23 21 21 23 21 20 19 16 15 14
59 59 55 53 49 45 42 39 39 32 33 34 35 35 32 23 22 21 6 7 9 12 17 16 19 19 15 16 14 16 19 23 23 26 27 24 26 26 27 26 24 25 24 25 24 22 20 19 19
61 61 61 56 51 49 47 45 42 38 36 36 36 39 36 31 26 27 11 8 7 10 14 10 15 18 17 15 14 12 14 17 19 21 24 24 24 26 26 28 28 25 25 26 26 25 22 23 21
58 60 61 58 54 51 47 46 45 45 42 41 40 39 36 34 28 29 21 12 7 10 9 6 13 16 16 12 14 10 9 10 14 18 20 21 21 22 23 25 27 28 27 27 27 26 24 22 20
57 59 61 59 55 53 50 48 45 48 48 42 38 40 38 34 30 33 19 17 12 12 11 3 9 14 17 11 12 12 9 7 8 11 15 16 17 19 21 22 24 25 25 24 24 24 22 21 22
58 60 59 58 53 50 49 46 44 45 46 44 41 42 41 35 30 31 26 18 18 15 13 7 4 11 18 12 11 11 9 6 5 6 9 11 12 15 18 19 21 21 22 22 23 24 23 21 22
64 65 62 58 53 49 48 47 45 42 42 42 42 40 41 42 36 41 39 25 24 19 18 15 6 7 14 17 8 11 10 7 4 5 3 7 7 10 12 15 17 17 18 18 18 18 19 19 20
70 66 61 58 55 50 49 47 44 40 39 38 39 38 40 42 39 43 39 34 26 25 24 18 11 10 10 17 10 9 10 9 6 5 4 4 5 6 8 11 12 14 14 13 13 14 15 16 17
71 66 62 59 55 52 49 47 45 40 39 37 37 38 39 41 42 38 32 30 29 30 27 26 22 23 21 21 23 13 7 7 7 7 6 6 6 5 5 5 7 8 11 12 12 14 15 16 18
76 71 64 59 55 58 50 48 46 39 34 35 36 36 36 37 34 31 29 31 27 29 29 29 30 26 21 25 26 12 15 13 7 6 8 10 10 10 9 8 7 7 7 9 9 10 12 15 18
75 71 65 62 59 58 50 54 46 41 39 37 36 37 33 32 38 28 37 34 23 34 29 28 26 22 26 25 25 17 21 14 13 12 9 9 14 13 13 12 11 11 10 9 9 9 11 12 15
76 73 70 64 59 56 52 55 48 46 42 39 39 37 33 31 35 41 38 35 31 34 34 32 33 31 29 27 22 20 17 19 18 17 12 11 13 17 18 18 16 14 14 14 13 13 12 13 14
79 74 70 65 61 59 57 56 54 49 46 42 42 39 38 32 35 48 45 40 33 34 34 35 33 35 35 29 25 28 27 31 24 23 22 15 20 21 21 21 21 20 18 18 18 19 19 18 19
83 77 74 69 64 64 60 58 58 55 50 46 44 43 40 40 36 41 42 45 49 45 39 43 41 39 37 36 35 32 33 37 29 25 28 27 25 22 24 24 26 25 23 22 23 22 22 23 24

GFSSGP_250_spd_240.txt.gz
Wind_Speed
15 14 15 18 23 26 24 31 34 40 43 46 48 51 49 54 53 53 54 57 55 47 43 39 34 31 32 30 28 26 25 23 21 20 22 20 23 23 24 25 24 19 12 18 14 10 6 3 2
13 14 15 16 21 21 22 27 32 37 39 44 47 49 50 52 55 56 51 55 56 52 46 43 39 36 33 30 26 26 24 22 22 23 20 20 17 16 18 25 25 20 13 14 15 13 9 3 5
14 15 16 16 16 19 21 22 25 33 37 44 45 49 52 50 55 55 51 51 53 48 44 42 41 40 37 34 32 27 23 21 22 20 16 15 18 18 16 15 20 18 17 14 12 7 2 1 0
10 10 9 12 13 18 20 18 21 31 36 43 43 48 53 49 51 55 54 48 50 48 44 42 39 37 36 33 30 25 20 17 17 17 14 15 16 17 14 11 13 11 11 11 9 6 4 5 3
11 8 16 14 14 20 20 19 20 31 36 41 42 44 50 50 48 51 54 51 45 46 42 41 39 35 32 31 28 28 27 23 20 19 17 18 16 15 14 13 12 11 10 9 8 7 5 2 2
13 10 12 11 13 18 18 19 23 27 29 38 39 41 46 50 47 47 51 53 48 45 42 39 38 35 32 29 27 27 25 24 24 20 18 18 13 13 14 14 13 13 12 11 10 9 6 9 8
7 11 7 9 7 14 16 18 22 23 26 35 37 40 41 45 45 44 45 49 52 48 42 40 36 36 32 32 27 27 25 25 24 23 22 19 17 16 16 15 15 15 13 12 13 13 11 9 7
12 10 4 2 5 12 14 20 21 19 23 33 36 37 39 42 42 43 41 44 49 50 45 38 36 32 33 31 34 31 28 24 25 24 21 17 11 12 14 16 18 19 16 13 13 11 9 10 10
12 10 8 5 5 8 8 13 14 17 17 24 30 34 34 38 38 41 40 40 43 47 48 46 41 33 29 30 30 30 33 31 33 33 32 26 20 12 10 15 13 14 13 10 9 10 7 10 10
11 5 9 7 4 6 5 8 9 13 10 16 24 28 30 32 34 36 40 39 39 40 44 46 44 41 32 30 27 33 31 32 33 34 32 28 33 34 27 19 15 14 15 13 14 13 19 26 27
16 10 10 12 7 0 3 5 8 11 6 8 16 22 25 25 32 32 34 39 39 36 36 41 43 42 39 33 32 33 31 27 30 29 28 29 24 27 33 37 33 27 25 30 34 33 30 26 24
24 19 13 18 11 7 5 4 7 6 4 10 13 21 23 22 26 28 28 32 35 37 33 32 37 39 39 38 38 33 31 29 26 27 28 28 25 24 27 32 35 34 34 33 31 28 26 25 24
29 27 21 23 18 15 12 7 7 6 6 1 3 13 19 19 23 27 24 26 30 33 33 28 28 33 36 37 37 37 34 30 28 27 29 29 31 29 28 26 28 29 29 28 27 27 26 26 25
33 31 29 26 23 23 19 15 11 9 11 7 4 12 12 15 17 23 17 25 24 26 29 29 23 23 29 33 34 34 36 34 32 30 29 27 27 28 26 25 24 26 26 25 26 27 26 24 25
41 36 34 32 29 27 25 21 17 12 11 14 13 16 18 15 14 20 18 19 22 23 24 27 25 20 22 26 29 32 32 32 32 31 30 30 28 25 23 25 25 24 24 24 25 25 23 23 25
47 43 40 36 35 32 31 29 22 17 13 16 16 14 17 19 14 18 16 21 18 19 19 23 24 19 18 21 26 28 29 30 30 30 30 30 29 29 26 23 23 24 23 24 25 25 25 26 24
50 48 45 41 35 35 35 35 32 27 21 16 18 20 19 19 17 12 9 15 14 13 15 19 22 20 14 17 21 23 24 26 27 26 26 28 29 29 29 27 25 25 25 25 27 26 25 24 22
53 50 49 45 43 39 34 36 36 33 31 23 20 21 22 21 20 18 13 12 15 9 10 15 17 19 13 10 15 19 20 22 24 24 23 24 26 28 28 28 27 26 26 27 25 25 24 21 19
56 52 51 49 46 44 41 37 37 37 33 30 25 25 24 24 24 22 21 18 12 8 3 7 13 15 16 10 9 13 16 19 21 20 22 21 21 23 24 26 26 26 25 24 23 23 22 21 21
59 56 53 52 48 46 46 43 40 38 35 34 31 27 23 22 24 25 24 21 14 7 2 1 9 11 15 11 8 8 9 14 16 18 18 19 20 20 22 23 24 23 25 23 22 21 22 21 20
62 59 57 54 51 50 49 49 45 40 38 38 34 33 31 24 26 28 25 23 17 10 6 4 4 9 10 12 11 7 6 8 11 12 13 14 16 17 18 20 20 20 22 21 20 20 19 19 21
66 64 60 56 53 50 49 47 47 44 40 37 34 31 29 27 26 28 28 27 19 14 10 8 4 6 9 9 10 10 8 7 7 10 9 9 11 13 14 17 18 19 18 17 17 17 16 17 18
67 69 63 58 55 53 51 49 47 46 43 37 34 33 32 29 28 28 27 25 27 15 12 12 10 8 3 11 9 7 8 10 9 6 6 5 5 6 10 11 13 14 14 14 15 14 14 14 15
73 69 65 60 56 51 49 47 46 44 40 38 34 32 32 30 29 30 29 31 32 26 28 18 17 15 10 12 8 6 5 5 6 6 3 3 2 1 2 5 6 8 10 11 12 11 11 11 11
75 70 65 62 58 51 48 47 47 45 42 38 35 33 33 31 30 31 31 33 33 29 31 25 19 19 16 9 1 2 7 4 2 3 3 2 4 2 1 2 1 2 4 5 5 6 8 8 9
80 77 71 66 62 56 53 50 50 46 43 42 38 36 34 33 32 32 32 31 33 31 34 29 22 25 22 22 10 6 6 4 5 7 4 4 3 6 7 6 6 5 4 4 3 4 6 8 10
84 80 76 73 68 62 58 57 53 49 46 43 40 39 37 34 34 34 33 31 32 34 34 34 27 28 28 25 16 15 10 5 4 5 6 7 8 9 10 8 8 10 10 10 10 9 9 10 12
88 84 81 74 69 63 62 59 58 52 49 45 45 43 40 39 37 35 33 32 31 32 35 36 33 32 28 35 27 22 20 11 7 6 10 7 9 13 13 10 12 12 15 17 16 15 15 16 16
92 85 81 76 70 65 63 60 62 56 53 50 48 45 43 42 38 37 35 28 30 29 31 38 37 36 42 37 30 30 20 21 13 7 14 14 7 12 16 13 12 17 18 19 21 21 20 20 21
96 90 87 81 74 70 65 62 62 57 55 52 51 49 47 45 42 40 37 31 30 37 38 37 35 40 41 39 31 30 26 25 17 14 13 20 16 13 17 17 14 15 17 16 19 23 24 25 26

GFSSGP_250_spd_243.txt.gz
Wind_Speed
13 16 18 19 18 19 25 32 38 44 43 52 51 49 52 50 47 47 45 45 45 42 40 36 33 31 30 28 26 23 24 21 17 17 18 20 23 25 25 30 27 20 15 13 12 12 14 15 10
11 15 18 18 18 18 23 30 36 42 42 50 51 49 50 50 48 47 45 44 44 43 41 39 35 33 30 29 27 25 22 19 21 22 22 25 23 29 22 23 24 22 19 22 16 10 4 6 6
12 14 15 17 21 19 18 26 33 37 43 46 50 50 49 51 52 47 45 42 41 40 39 38 36 33 31 29 27 27 24 25 22 19 20 20 18 22 23 27 20 18 11 17 16 11 5 3 3
9 9 13 16 20 19 22 22 32 36 41 46 50 50 48 50 52 50 45 41 39 37 35 35 36 34 30 26 24 24 23 21 20 16 16 19 18 15 18 22 19 15 12 11 10 10 2 3 2
10 11 10 15 18 17 20 23 30 31 38 41 47 48 50 45 49 53 47 40 38 37 34 31 30 30 27 25 24 22 21 19 15 14 15 15 15 15 13 16 17 13 11 8 7 5 4 3 1
12 11 10 11 13 15 16 19 22 28 35 38 43 45 47 45 44 49 51 43 38 35 32 32 31 29 28 26 23 22 21 20 17 20 17 14 15 16 15 14 14 13 11 10 8 7 4 4 3
10 12 9 7 8 14 17 16 16 25 30 31 37 40 43 44 40 45 47 48 43 36 32 30 31 27 25 24 24 23 22 21 21 18 14 11 13 14 14 15 14 13 10 8 7 7 7 7 4
9 6 3 2 4 10 12 15 18 17 25 34 32 35 37 42 42 42 42 44 45 44 32 28 28 29 29 28 23 25 25 23 21 18 12 12 14 16 17 17 16 15 14 11 11 10 8 6 8
14 9 8 5 4 5 7 10 14 13 16 21 23 33 34 37 35 41 39 40 41 42 42 30 25 25 26 29 29 31 29 27 26 22 13 11 14 16 19 20 20 15 12 10 8 7 5 9 14
13 10 9 9 5 4 3 6 12 8 13 19 27 32 30 31 34 36 38 38 38 38 40 42 35 25 27 26 27 27 26 28 27 26 27 24 18 15 20 17 15 12 13 14 9 8 14 20 17
17 12 13 11 11 4 1 4 7 8 10 19 24 25 28 29 30 32 34 35 36 33 34 38 37 34 28 27 26 25 24 25 25 20 19 24 30 28 23 19 19 19 22 26 27 25 22 19 19
19 17 12 15 16 12 5 4 5 5 8 10 14 18 20 24 29 28 33 30 34 34 30 33 34 35 34 33 30 27 28 27 25 23 21 23 29 34 35 34 32 29 28 28 26 24 23 21 19
26 23 18 16 20 15 12 11 6 6 5 4 13 10 19 21 25 27 25 29 28 31 29 27 30 31 32 34 30 30 29 27 26 25 26 27 29 30 32 29 27 25 26 27 26 23 20 21 22
31 28 27 21 21 22 19 17 18 8 8 9 6 12 19 21 21 24 27 26 20 26 27 26 23 26 28 30 29 28 29 27 26 27 23 22 24 25 25 24 25 24 26 25 22 21 23 24 23
37 34 32 29 27 28 25 23 22 14 11 7 5 13 15 20 20 17 21 19 18 20 24 24 21 20 23 26 27 27 28 27 26 25 27 24 23 23 23 22 21 23 23 22 21 24 23 23 26
45 43 39 36 34 31 30 28 25 23 14 12 13 14 14 14 20 19 12 17 18 16 19 22 19 16 17 21 23 25 25 25 26 26 24 26 24 21 20 21 22 23 21 21 23 24 22 24 26
54 49 45 29 41 38 35 33 31 28 24 18 16 16 14 15 17 14 13 13 19 15 13 18 21 16 15 16 19 21 22 23 23 25 25 25 25 25 24 23 23 23 23 22 21 22 22 25 25
57 57 53 50 47 44 40 36 32 30 30 25 21 18 17 16 20 16 17 21 13 16 7 14 17 18 11 11 15 16 18 20 21 22 21 22 24 25 23 23 22 22 22 21 22 22 23 25 26
54 55 54 52 51 48 44 41 38 34 30 28 26 21 19 17 17 18 17 19 14 10 8 8 12 15 13 8 9 12 15 17 18 18 19 19 20 20 22 22 22 22 21 22 22 22 23 26 25
59 56 53 51 50 49 47 45 42 40 36 33 29 27 25 22 19 19 19 19 17 10 7 3 7 9 10 8 7 7 9 11 14 16 16 17 18 19 19 20 21 21 21 21 21 22 22 22 22
62 61 58 54 49 50 48 46 44 42 40 38 35 32 29 26 21 19 20 19 19 12 11 8 5 5 7 6 7 6 5 5 7 11 13 14 15 15 16 17 18 18 18 19 17 18 20 20 21
66 64 62 58 55 53 51 49 49 46 44 41 39 36 31 27 22 19 19 20 17 12 13 12 7 1 3 4 8 9 7 2 3 4 8 10 11 12 13 14 16 16 15 16 16 15 17 18 18
68 67 64 60 58 55 54 51 48 46 43 42 40 38 35 28 26 22 20 21 22 20 16 17 13 8 6 8 6 12 9 7 4 1 2 5 6 8 9 11 12 13 13 13 13 13 14 14 14
76 74 70 64 61 57 56 53 51 51 46 43 40 38 34 29 25 22 21 23 25 22 20 23 21 17 12 9 13 9 9 4 4 5 1 1 3 3 2 4 7 8 8 9 9 9 10 10 10
77 75 72 68 64 60 59 58 56 50 47 44 40 38 36 32 29 24 24 25 26 25 24 29 25 24 20 11 15 11 11 8 7 5 6 4 2 2 4 2 1 3 5 6 6 6 7 7 9
82 78 73 69 66 63 62 59 54 52 48 45 42 40 37 34 30 26 25 24 26 26 28 30 32 21 27 16 13 13 13 13 10 9 8 7 7 9 7 7 5 4 6 6 7 9 8 9 10
88 85 77 76 72 71 67 64 61 55 53 48 46 42 39 35 31 29 28 27 27 27 30 30 32 32 27 24 24 19 16 14 12 10 13 12 11 9 10 11 12 10 8 10 11 11 12 13 14
97 87 90 83 78 73 70 67 63 59 55 51 47 44 41 37 35 32 32 31 29 28 29 29 33 35 31 29 34 26 18 15 13 12 12 13 12 6 11 11 12 11 12 11 13 14 16 18 19
96 96 92 87 83 78 75 71 69 66 60 56 52 50 46 42 39 35 33 34 34 32 33 34 37 37 39 35 37 37 28 28 18 11 9 7 15 13 11 8 12 12 15 15 16 18 19 21 22
102 99 95 91 84 81 78 76 76 71 66 58 58 51 50 47 43 40 38 36 35 35 34 33 35 38 41 37 34 33 32 29 25 23 19 10 12 21 10 8 13 10 15 16 17 19 19 18 16

GFSSGP_250_spd_249.txt.gz
Wind_Speed
17 16 22 23 27 34 35 40 44 49 54 56 57 59 51 45 43 41 37 37 34 31 28 25 22 20 18 18 17 17 16 18 19 21 18 17 16 15 15 15 20 19 13 18 15 13 10 9 12
21 14 24 24 26 29 32 37 44 49 52 56 57 59 55 49 42 40 38 36 34 34 32 29 25 24 25 23 20 18 17 20 20 19 17 16 19 18 18 16 14 22 14 17 15 12 10 8 8
20 13 21 17 23 27 31 35 44 43 48 52 54 55 57 53 42 38 37 36 32 30 30 28 26 26 24 24 22 22 21 20 18 18 17 17 23 17 18 10 16 17 16 10 12 11 10 10 8
8 9 21 24 23 23 29 34 37 40 47 51 52 52 55 54 48 39 39 36 32 29 27 25 23 23 23 23 22 21 19 18 18 16 20 19 25 25 21 19 13 12 14 17 15 15 15 15 13
16 11 22 17 17 20 27 31 33 34 45 49 50 49 52 54 51 43 36 38 35 31 27 23 21 21 23 24 23 22 21 20 20 17 17 24 25 25 14 23 17 21 12 4 14 16 15 17 17
4 5 10 14 15 19 23 28 29 29 45 45 46 48 50 51 50 47 43 35 33 31 27 24 21 18 17 17 16 17 14 11 11 15 15 20 20 24 13 23 18 10 11 9 7 11 9 10 10
3 11 4 9 16 12 20 21 27 27 36 38 43 45 47 47 47 47 45 39 33 30 29 26 22 20 17 16 14 12 13 11 10 12 14 14 16 18 15 16 14 13 11 11 8 6 8 8 9
13 9 5 15 8 13 17 15 18 26 31 32 40 40 42 48 43 44 46 42 38 31 29 28 26 22 18 14 12 12 12 10 10 11 11 13 15 16 15 14 14 14 12 7 4 4 5 7 9
10 10 5 9 14 6 15 13 17 18 25 28 37 38 39 42 43 42 44 43 39 34 30 29 28 24 20 18 17 13 12 9 7 11 12 12 11 12 10 8 5 5 4 3 3 2 4 6 7
8 1 8 5 9 1 7 11 15 15 22 21 32 36 36 36 37 40 44 38 37 37 30 32 31 28 29 29 21 18 17 14 11 6 9 12 10 9 7 6 5 6 5 4 2 2 2 4 6
13 8 11 8 13 7 3 9 12 14 20 20 17 36 34 34 33 38 40 36 35 33 33 30 31 29 28 32 32 24 20 18 17 11 13 11 13 12 11 8 6 6 7 5 6 7 9 10 7
22 17 12 8 12 13 8 13 15 11 15 22 16 24 30 34 30 31 38 36 33 31 31 32 35 25 27 29 30 16 17 20 23 25 20 15 16 13 8 10 16 19 19 13 13 14 13 10 11
26 26 21 9 9 12 17 14 12 14 14 15 21 21 25 30 31 26 32 36 28 33 29 30 30 29 28 29 9 17 12 19 20 26 28 26 23 22 22 22 22 22 19 19 20 15 15 17 20
31 30 28 27 27 22 19 18 14 16 14 14 16 19 20 28 28 28 28 31 26 28 28 27 28 26 25 26 22 22 14 16 17 22 24 25 24 25 24 23 22 22 23 20 17 20 21 24 29
35 33 27 30 30 27 20 17 15 16 13 11 13 18 16 26 26 23 21 25 24 22 26 25 23 24 24 22 22 25 19 18 17 18 19 19 21 23 23 21 21 23 21 20 20 24 26 30 33
37 37 30 29 27 31 31 24 22 18 15 13 16 14 14 20 23 19 23 24 23 17 20 20 22 21 21 21 19 22 22 22 20 15 17 17 19 20 21 22 23 22 20 21 21 24 27 32 32
45 40 39 28 26 22 30 31 29 25 22 18 15 15 14 14 17 17 17 20 20 15 15 16 17 20 20 19 20 19 21 23 21 18 18 18 19 20 20 22 22 20 20 21 22 24 25 30 30
53 49 46 46 42 36 33 29 32 30 29 25 21 18 17 16 16 15 15 16 17 14 8 11 10 14 15 15 15 17 18 19 20 19 19 19 20 20 19 18 19 19 20 19 20 22 24 26 28
58 56 54 52 51 46 36 29 35 33 28 30 28 26 23 21 18 16 16 15 13 14 10 5 7 8 11 10 11 12 15 14 17 17 18 19 18 17 17 17 16 17 20 20 19 19 21 24 26
59 59 57 54 57 54 51 54 41 38 42 38 37 34 32 26 23 18 18 15 13 12 12 3 1 5 7 5 8 8 11 13 14 16 17 17 16 16 16 15 15 15 17 17 18 18 19 21 24
60 60 60 58 56 58 57 55 49 47 48 45 44 41 37 31 25 20 18 17 14 12 13 10 6 2 4 2 3 4 5 9 11 13 15 16 16 15 15 15 14 14 14 14 16 17 17 20 23
66 66 65 60 58 58 56 54 54 54 52 50 50 46 41 33 28 24 18 19 16 15 13 13 7 7 2 3 3 2 2 5 7 10 11 14 15 15 15 14 13 14 14 14 14 15 16 19 21
73 73 72 69 66 59 59 54 51 49 48 47 43 43 41 32 28 23 20 18 18 18 15 16 9 12 8 6 6 6 4 1 4 7 8 8 10 12 13 13 12 11 11 11 11 12 14 16 17
77 80 78 76 70 64 62 60 57 51 53 49 43 40 38 33 29 23 23 21 17 16 15 16 14 16 13 11 9 9 7 4 2 2 4 7 5 5 7 7 8 7 6 7 9 10 12 13 14
82 81 79 79 75 66 68 65 63 57 58 52 50 43 38 36 34 28 27 23 21 17 16 17 19 18 17 18 14 14 12 8 8 7 7 4 4 4 3 3 4 4 1 1 3 6 8 11 13
90 87 85 78 73 71 74 67 68 67 61 55 50 51 45 41 36 37 31 25 23 20 19 20 20 19 23 25 24 20 18 17 13 9 10 10 9 9 8 7 7 4 3 6 8 8 9 9 10
93 94 87 87 80 77 73 72 73 69 62 59 54 53 51 45 42 40 35 28 25 23 23 25 24 23 27 22 23 26 26 23 18 16 14 16 13 15 14 11 10 8 5 4 6 8 10 13 15
98 93 94 91 87 82 73 74 73 67 66 63 59 56 57 50 46 40 37 32 27 25 25 27 28 27 31 34 35 26 26 24 19 19 18 20 14 16 18 17 14 13 6 6 7 10 12 14 16
97 98 97 96 91 86 80 76 75 73 70 69 66 61 60 55 49 42 39 33 30 26 27 28 30 30 30 34 38 28 29 31 26 22 18 15 20 14 17 17 14 12 11 10 12 12 13 13 15
98 97 100 103 96 92 88 82 81 78 76 74 70 64 61 58 50 47 44 37 32 32 30 30 31 33 31 31 34 33 33 33 35 26 23 18 14 16 15 12 12 17 6 9 17 17 11 13 16